Location: Newark
(43.0000°N, 1.6781°W)
Time: 08:58:28
(UTC+00:00)

AO-7 - Pass Details

Date: 12 December 2022
Orbit: 1440 x 1459 km, 101.9° (Epoch: 28 January)

Event Time Altitude Azimuth Distance (km) Brightness Sun altitude
Rises 03:29:37 0° 28° (NNE) 4,547 ? -42.7°
Reaches altitude 10° 03:33:06 10° 41° (NE) 3,567 ? -42.1°
Maximum altitude 03:39:39 25° 94° (E) 2,578 ? -40.9°
Drops below altitude 10° 03:46:11 10° 146° (SE) 3,562 ? -39.7°
Sets 03:49:37 0° 159° (SSE) 4,539 ? -39.1°
